Regional Weather Roundup
Issued by NWS

Home | Current Version | Previous Version | Graphics & Text | Print | Product List | Glossary On
Versions: 1 2 3 4 5 6 7 8 9 10 11 12 13 14 15 16 17 18 19 20 21 22 23 24 25 26 27 28 29 30 31 32 33 34 35 36 37 38 39 40 41 42 43 44 45 46 47 48 49 50
000
ASUS43 KIND 192209
RWRIN

WEATHER ROUNDUP FOR INDIANA
NATIONAL WEATHER SERVICE INDIANAPOLIS IN
600 PM EDT SUN OCT 19 2014

NOTE: "FAIR" INDICATES FEW OR NO CLOUDS BELOW 12,000 FEET WITH NO
SIGNIFICANT WEATHER AND/OR OBSTRUCTIONS TO VISIBILITY.

* - STATION DOES NOT REPORT WEATHER SUCH AS PRECIPITATION OR FOG.

+ - STATION NOT QUALITY CONTROLLED BY THE NATIONAL WEATHER SERVICE.
    USE DATA WITH CAUTION...ESPECIALLY DEWPOINT AND RELATIVE
    HUMIDITY OBSERVATIONS.

INZ001>003-010>013-019-020-192300-
NORTHWEST INDIANA

CITY           SKY/WX    TMP DP  RH WIND       PRES   REMARKS
GARY /AIRPORT/ CLOUDY    57  41  54 SW9       30.05F
KNOX *+        MOCLDY    55  38  54 SW7       30.05F
LA PORTE +     CLOUDY    55  40  57 SW10      30.05F
MICHIGAN CITY+ CLOUDY    52  37  58 S5        30.05F
MONTICELLO +   MOSUNNY   54  40  59 S5        30.07F
RENSSELAER +   MOSUNNY   55  41  58 SW10      30.06F
VALPARAISO     CLOUDY    55  38  52 SW10      30.05F

$$

LMZ046-743>745-192300-
SOUTHERN LAKE MICHIGAN

STATION/POSITION TIME  TEMP WIND        PRES
                       AIR  DIR/SP/G
                 (UTC) (F)  (DEG/KT/KT) (MB)
MICHIGAN CITY    2200   54  180/  9/ 11   N/A

$$

INZ004-005-014>016-021>024-192300-
NORTH CENTRAL INDIANA

CITY           SKY/WX    TMP DP  RH WIND       PRES   REMARKS
GOSHEN         MOCLDY    52  38  58 SW10      30.06F
LOGANSPORT +   PTCLDY    52  37  58 SW9       30.09F
PERU/GRISSOM   PTCLDY    54  43  66 SW12      30.07F
ROCHESTER +    MOCLDY    55  37  50 SW9       30.07F
SOUTH BEND     CLOUDY    54  38  54 SW13      30.06F
WARSAW +       MOCLDY    52  37  58 SW5       30.07F

$$

INZ006>009-017-018-025>027-192300-
NORTHEAST INDIANA

CITY           SKY/WX    TMP DP  RH WIND       PRES   REMARKS
ANGOLA *+      CLEAR     52  37  58 SW8       30.06F
AUBURN +       MOCLDY    52  34  50 SW6       30.08F
FORT WAYNE     MOCLDY    53  36  52 SW10      30.09F
HUNTINGTON +   MOCLDY    54  36  51 SW3       30.08F

$$

INZ028-029-035-036-043>045-051>053-192300-
WEST CENTRAL INDIANA

CITY           SKY/WX    TMP DP  RH WIND       PRES   REMARKS
GREENCASTLE +  MOSUNNY   54  41  62 CALM      30.11F
LAFAYETTE      SUNNY     55  40  56 SW8       30.08F
TERRE HAUTE    MOSUNNY   52  41  66 SW7       30.12F

$$

INZ030>032-037>040-046>048-054>057-064-065-192300-
CENTRAL INDIANA

CITY           SKY/WX    TMP DP  RH WIND       PRES   REMARKS
CP ATTERBURY + MOSUNNY   54  39  58 SW5       30.13F
COLUMBUS       MOSUNNY   54  39  58 MISG      30.12F
FRANKFORT +      N/A     55  39  56 SW8       30.11F HAZE
GREENWOOD *+   MOSUNNY   55  36  47 SW8       30.11F
INDIANAPOLIS   PTSUNNY   55  40  56 SW8       30.10F
-EAGLE CREEK   MOSUNNY   55  39  54 SW3       30.09F
KOKOMO *+      PTCLDY    57  37  47 SW10      30.09F
MARION +       PTCLDY    56  35  46 SW6       30.09F
MT COMFORT *+  PTCLDY    54  30  40 S8        30.11F
SHELBYVILLE    PTCLDY    57  39  51 SW9       30.11F
ZIONSVILLE +   MOSUNNY   55  38  51 SW10      30.11S

$$

INZ033-034-041-042-049-050-058-059-192300-
EAST CENTRAL INDIANA

CITY           SKY/WX    TMP DP  RH WIND       PRES   REMARKS
MUNCIE         PTCLDY    56  36  47 SW6       30.09F

$$

INZ060-061-067>069-081>083-085>088-192300-
SOUTHWEST INDIANA

CITY           SKY/WX    TMP DP  RH WIND       PRES   REMARKS
EVANSVILLE     MOSUNNY   60  43  53 SE3       30.13F
HUNTINGBURG *+ MOSUNNY   57  41  54 CALM      30.13F
WASHINGTON +   MOSUNNY   56  42  59 W5        30.12F

$$

INZ062-063-066-070>080-084-089>092-192300-
SOUTH CENTRAL AND SOUTHEAST INDIANA

CITY           SKY/WX    TMP DP  RH WIND       PRES   REMARKS
BLOOMINGTON    MOSUNNY   55  40  56 S5        30.12F

$$




USA.gov is the U.S. government's official web portal to all federal, state and local government web resources and services.